Year,Month,Day,Hour,Minute,Value (Times are PST for temperature in C)
2017,03,07,00,00,-0.50
2017,03,07,00,01,-0.50
2017,03,07,00,02,-0.50
2017,03,07,00,03,-0.50
2017,03,07,00,04,-0.50
2017,03,07,00,05,-0.50
2017,03,07,00,06,-0.40
2017,03,07,00,07,-0.40
2017,03,07,00,08,-0.40
2017,03,07,00,09,-0.40
2017,03,07,00,10,-0.40
2017,03,07,00,11,-0.40
2017,03,07,00,12,-0.40
2017,03,07,00,13,-0.40
2017,03,07,00,14,-0.40
2017,03,07,00,15,-0.40
2017,03,07,00,16,-0.40
2017,03,07,00,17,-0.40
2017,03,07,00,18,-0.40
2017,03,07,00,19,-0.30
2017,03,07,00,20,-0.30
2017,03,07,00,21,-0.30
2017,03,07,00,22,-0.30
2017,03,07,00,23,-0.30
2017,03,07,00,24,-0.30
2017,03,07,00,25,-0.30
2017,03,07,00,26,-0.30
2017,03,07,00,27,-0.30
2017,03,07,00,28,-0.30
2017,03,07,00,29,-0.30
2017,03,07,00,30,-0.30
2017,03,07,00,31,-0.30
2017,03,07,00,32,-0.30
2017,03,07,00,33,-0.30
2017,03,07,00,34,-0.30
2017,03,07,00,35,-0.30
2017,03,07,00,36,-0.30
2017,03,07,00,37,-0.30
2017,03,07,00,38,-0.30
2017,03,07,00,39,-0.30
2017,03,07,00,40,-0.30
2017,03,07,00,41,-0.30
2017,03,07,00,42,-0.30
2017,03,07,00,43,-0.30
2017,03,07,00,44,-0.30
2017,03,07,00,45,-0.20
2017,03,07,00,46,-0.20
2017,03,07,00,47,-0.20
2017,03,07,00,48,-0.20
2017,03,07,00,49,-0.20
2017,03,07,00,50,-0.20
2017,03,07,00,51,-0.20
2017,03,07,00,52,-0.10
2017,03,07,00,53,-0.10
2017,03,07,00,54,-0.10
2017,03,07,00,55,-0.10
2017,03,07,00,56,-0.10
2017,03,07,00,57,-0.10
2017,03,07,00,58,-0.10
2017,03,07,00,59,-0.10
2017,03,07,01,00,-0.10
2017,03,07,01,01,-0.10
2017,03,07,01,02,-0.10
2017,03,07,01,03,-0.10
2017,03,07,01,04,-0.10
2017,03,07,01,05,-0.10
2017,03,07,01,06,-0.10
2017,03,07,01,07,-0.10
2017,03,07,01,08,-0.10
2017,03,07,01,09,-0.10
2017,03,07,01,10,-0.10
2017,03,07,01,11,-0.10
2017,03,07,01,12,-0.10
2017,03,07,01,13,-0.10
2017,03,07,01,14,-0.10
2017,03,07,01,15,-0.10
2017,03,07,01,16,-0.10
2017,03,07,01,17,-0.10
2017,03,07,01,18,-0.10
2017,03,07,01,19,-0.10
2017,03,07,01,20,-0.10
2017,03,07,01,21,-0.10
2017,03,07,01,22,-0.10
2017,03,07,01,23,-0.10
2017,03,07,01,24,-0.20
2017,03,07,01,25,-0.20
2017,03,07,01,26,-0.20
2017,03,07,01,27,-0.20
2017,03,07,01,28,-0.20
2017,03,07,01,29,-0.20
2017,03,07,01,30,-0.20
2017,03,07,01,31,-0.30
2017,03,07,01,32,-0.30
2017,03,07,01,33,-0.30
2017,03,07,01,34,-0.30
2017,03,07,01,35,-0.30
2017,03,07,01,36,-0.30
2017,03,07,01,37,-0.30
2017,03,07,01,38,-0.40
2017,03,07,01,39,-0.40
2017,03,07,01,40,-0.40
2017,03,07,01,41,-0.40
2017,03,07,01,42,-0.50
2017,03,07,01,43,-0.50
2017,03,07,01,44,-0.50
2017,03,07,01,45,-0.60
2017,03,07,01,46,-0.60
2017,03,07,01,47,-0.60
2017,03,07,01,48,-0.60
2017,03,07,01,49,-0.60
2017,03,07,01,50,-0.60
2017,03,07,01,51,-0.60
2017,03,07,01,52,-0.70
2017,03,07,01,53,-0.70
2017,03,07,01,54,-0.70
2017,03,07,01,55,-0.70
2017,03,07,01,56,-0.70
2017,03,07,01,57,-0.70
2017,03,07,01,58,-0.70
2017,03,07,01,59,-0.80
2017,03,07,02,00,-0.80
2017,03,07,02,01,-0.80
2017,03,07,02,02,-0.80
2017,03,07,02,03,-0.80
2017,03,07,02,04,-0.80
2017,03,07,02,05,-0.80
2017,03,07,02,06,-0.80
2017,03,07,02,07,-0.80
2017,03,07,02,08,-0.90
2017,03,07,02,09,-0.90
2017,03,07,02,10,-0.90
2017,03,07,02,11,-0.90
2017,03,07,02,12,-0.90
2017,03,07,02,13,-0.90
2017,03,07,02,14,-0.90
2017,03,07,02,15,-0.90
2017,03,07,02,16,-0.90
2017,03,07,02,17,-0.90
2017,03,07,02,18,-0.90
2017,03,07,02,19,-1.00
2017,03,07,02,20,-1.00
2017,03,07,02,21,-1.00
2017,03,07,02,22,-1.00
2017,03,07,02,23,-1.00
2017,03,07,02,24,-1.00
2017,03,07,02,25,-1.00
2017,03,07,02,26,-1.00
2017,03,07,02,27,-1.00
2017,03,07,02,28,-1.00
2017,03,07,02,29,-1.00
2017,03,07,02,30,-1.00
2017,03,07,02,31,-1.00
2017,03,07,02,32,-1.00
2017,03,07,02,33,-1.00
2017,03,07,02,34,-1.10
2017,03,07,02,35,-1.10
2017,03,07,02,36,-1.00
2017,03,07,02,37,-1.00
2017,03,07,02,38,-1.10
2017,03,07,02,39,-1.00
2017,03,07,02,40,-1.00
2017,03,07,02,41,-1.00
2017,03,07,02,42,-1.00
2017,03,07,02,43,-1.00
2017,03,07,02,44,-1.00
2017,03,07,02,45,-1.00
2017,03,07,02,46,-1.00
2017,03,07,02,47,-1.00
2017,03,07,02,48,-1.00
2017,03,07,02,49,-1.00
2017,03,07,02,50,-1.00
2017,03,07,02,51,-1.00
2017,03,07,02,52,-1.00
2017,03,07,02,53,-1.00
2017,03,07,02,54,-1.10
2017,03,07,02,55,-1.10
2017,03,07,02,56,-1.10
2017,03,07,02,57,-1.10
2017,03,07,02,58,-1.10
2017,03,07,02,59,-1.10
2017,03,07,03,00,-1.10
2017,03,07,03,01,-1.10
2017,03,07,03,02,-1.10
2017,03,07,03,03,-1.10
2017,03,07,03,04,-1.10
2017,03,07,03,05,-1.10
2017,03,07,03,06,-1.10
2017,03,07,03,07,-1.10
2017,03,07,03,08,-1.10
2017,03,07,03,09,-1.10
2017,03,07,03,10,-1.10
2017,03,07,03,11,-1.10
2017,03,07,03,12,-1.10
2017,03,07,03,13,-1.10
2017,03,07,03,14,-1.10
2017,03,07,03,15,-1.10
2017,03,07,03,16,-1.10
2017,03,07,03,17,-1.10
2017,03,07,03,18,-1.10
2017,03,07,03,19,-1.10
2017,03,07,03,20,-1.10
2017,03,07,03,21,-1.10
2017,03,07,03,22,-1.10
2017,03,07,03,23,-1.00
2017,03,07,03,24,-0.90
2017,03,07,03,25,-0.90
2017,03,07,03,26,-0.90
2017,03,07,03,27,-0.90
2017,03,07,03,28,-0.90
2017,03,07,03,29,-0.90
2017,03,07,03,30,-0.90
2017,03,07,03,31,-0.90
2017,03,07,03,32,-0.90
2017,03,07,03,33,-0.90
2017,03,07,03,34,-0.90
2017,03,07,03,35,-0.90
2017,03,07,03,36,-0.90
2017,03,07,03,37,-0.90
2017,03,07,03,38,-0.80
2017,03,07,03,39,-0.80
2017,03,07,03,40,-0.70
2017,03,07,03,41,-0.70
2017,03,07,03,42,-0.70
2017,03,07,03,43,-0.70
2017,03,07,03,44,-0.60
2017,03,07,03,45,-0.60
2017,03,07,03,46,-0.60
2017,03,07,03,47,-0.60
2017,03,07,03,48,-0.60
2017,03,07,03,49,-0.60
2017,03,07,03,50,-0.60
2017,03,07,03,51,-0.60
2017,03,07,03,52,-0.60
2017,03,07,03,53,-0.60
2017,03,07,03,54,-0.60
2017,03,07,03,55,-0.60
2017,03,07,03,56,-0.60
2017,03,07,03,57,-0.60
2017,03,07,03,58,-0.70
2017,03,07,03,59,-0.70
2017,03,07,04,00,-0.70
2017,03,07,04,01,-0.70
2017,03,07,04,02,-0.70
2017,03,07,04,03,-0.70
2017,03,07,04,04,-0.70
2017,03,07,04,05,-0.60
2017,03,07,04,06,-0.60
2017,03,07,04,07,-0.60
2017,03,07,04,08,-0.60
2017,03,07,04,09,-0.60
2017,03,07,04,10,-0.60
2017,03,07,04,11,-0.70
2017,03,07,04,12,-0.70
2017,03,07,04,13,-0.70
2017,03,07,04,14,-0.70
2017,03,07,04,15,-0.70
2017,03,07,04,16,-0.70
2017,03,07,04,17,-0.70
2017,03,07,04,18,-0.70
2017,03,07,04,19,-0.70
2017,03,07,04,20,-0.70
2017,03,07,04,21,-0.70
2017,03,07,04,22,-0.70
2017,03,07,04,23,-0.70
2017,03,07,04,24,-0.70
2017,03,07,04,25,-0.70
2017,03,07,04,26,-0.70
2017,03,07,04,27,-0.70
2017,03,07,04,28,-0.70
2017,03,07,04,29,-0.70
2017,03,07,04,30,-0.70
2017,03,07,04,31,-0.80
2017,03,07,04,32,-0.70
2017,03,07,04,33,-0.70
2017,03,07,04,34,-0.70
2017,03,07,04,35,-0.70
2017,03,07,04,36,-0.70
2017,03,07,04,37,-0.70
2017,03,07,04,38,-0.70
2017,03,07,04,39,-0.70
2017,03,07,04,40,-0.70
2017,03,07,04,41,-0.70
2017,03,07,04,42,-0.70
2017,03,07,04,43,-0.70
2017,03,07,04,44,-0.70
2017,03,07,04,45,-0.70
2017,03,07,04,46,-0.70
2017,03,07,04,47,-0.70
2017,03,07,04,48,-0.80
2017,03,07,04,49,-0.80
2017,03,07,04,50,-0.80
2017,03,07,04,51,-0.80
2017,03,07,04,52,-0.80
2017,03,07,04,53,-0.80
2017,03,07,04,54,-0.80
2017,03,07,04,55,-0.80
2017,03,07,04,56,-0.80
2017,03,07,04,57,-0.80
2017,03,07,04,58,-0.80
2017,03,07,04,59,-0.80
2017,03,07,05,00,-0.80
2017,03,07,05,01,-0.80
2017,03,07,05,02,-0.80
2017,03,07,05,03,-0.80
2017,03,07,05,04,-0.80
2017,03,07,05,05,-0.80
2017,03,07,05,06,-0.80
2017,03,07,05,07,-0.80
2017,03,07,05,08,-0.80
2017,03,07,05,09,-0.80
2017,03,07,05,10,-0.80
2017,03,07,05,11,-0.80
2017,03,07,05,12,-0.80
2017,03,07,05,13,-0.80
2017,03,07,05,14,-0.80
2017,03,07,05,15,-0.80
2017,03,07,05,16,-0.80
2017,03,07,05,17,-0.80
2017,03,07,05,18,-0.80
2017,03,07,05,19,-0.80
2017,03,07,05,20,-0.70
2017,03,07,05,21,-0.70
2017,03,07,05,22,-0.70
2017,03,07,05,23,-0.70
2017,03,07,05,24,-0.70
2017,03,07,05,25,-0.70
2017,03,07,05,26,-0.70
2017,03,07,05,27,-0.70
2017,03,07,05,28,-0.70
2017,03,07,05,29,-0.70
2017,03,07,05,30,-0.70
2017,03,07,05,31,-0.70
2017,03,07,05,32,-0.70
2017,03,07,05,33,-0.60
2017,03,07,05,34,-0.60
2017,03,07,05,35,-0.60
2017,03,07,05,36,-0.60
2017,03,07,05,37,-0.60
2017,03,07,05,38,-0.60
2017,03,07,05,39,-0.60
2017,03,07,05,40,-0.60
2017,03,07,05,41,-0.60
2017,03,07,05,42,-0.60
2017,03,07,05,43,-0.60
2017,03,07,05,44,-0.60
2017,03,07,05,45,-0.60
2017,03,07,05,46,-0.60
2017,03,07,05,47,-0.60
2017,03,07,05,48,-0.50
2017,03,07,05,49,-0.50
2017,03,07,05,50,-0.50
2017,03,07,05,51,-0.50
2017,03,07,05,52,-0.50
2017,03,07,05,53,-0.50
2017,03,07,05,54,-0.50
2017,03,07,05,55,-0.40
2017,03,07,05,56,-0.40
2017,03,07,05,57,-0.40
2017,03,07,05,58,-0.40
2017,03,07,05,59,-0.40
2017,03,07,06,00,-0.40
2017,03,07,06,01,-0.40
2017,03,07,06,02,-0.40
2017,03,07,06,03,-0.40
2017,03,07,06,04,-0.40
2017,03,07,06,05,-0.40
2017,03,07,06,06,-0.40
2017,03,07,06,07,-0.40
2017,03,07,06,08,-0.40
2017,03,07,06,09,-0.30
2017,03,07,06,10,-0.30
2017,03,07,06,11,-0.30
2017,03,07,06,12,-0.30
2017,03,07,06,13,-0.30
2017,03,07,06,14,-0.30
2017,03,07,06,15,-0.30
2017,03,07,06,16,-0.30
2017,03,07,06,17,-0.30
2017,03,07,06,18,-0.30
2017,03,07,06,19,-0.30
2017,03,07,06,20,-0.30
2017,03,07,06,21,-0.30
2017,03,07,06,22,-0.30
2017,03,07,06,23,-0.30
2017,03,07,06,24,-0.30
2017,03,07,06,25,-0.30
2017,03,07,06,26,-0.30
2017,03,07,06,27,-0.20
2017,03,07,06,28,-0.20
2017,03,07,06,29,-0.20
2017,03,07,06,30,-0.20
2017,03,07,06,31,-0.20
2017,03,07,06,32,-0.20
2017,03,07,06,33,-0.20
2017,03,07,06,34,-0.20
2017,03,07,06,35,-0.20
2017,03,07,06,36,-0.20
2017,03,07,06,37,-0.20
2017,03,07,06,38,-0.20
2017,03,07,06,39,-0.20
2017,03,07,06,40,-0.20
2017,03,07,06,41,-0.20
2017,03,07,06,42,-0.20
2017,03,07,06,43,-0.10
2017,03,07,06,44,-0.10
2017,03,07,06,45,-0.10
2017,03,07,06,46,-0.10
2017,03,07,06,47,-0.10
2017,03,07,06,48,-0.10
2017,03,07,06,49,-0.10
2017,03,07,06,50,-0.10
2017,03,07,06,51,-0.10
2017,03,07,06,52,0.00
2017,03,07,06,53,0.00
2017,03,07,06,54,0.10
2017,03,07,06,55,0.10
2017,03,07,06,56,0.10
2017,03,07,06,57,0.20
2017,03,07,06,58,0.20
2017,03,07,06,59,0.20
2017,03,07,07,00,0.20
2017,03,07,07,01,0.30
2017,03,07,07,02,0.40
2017,03,07,07,03,0.40
2017,03,07,07,04,0.50
2017,03,07,07,05,0.60
2017,03,07,07,06,0.70
2017,03,07,07,07,0.70
2017,03,07,07,08,0.80
2017,03,07,07,09,0.90
2017,03,07,07,10,0.90
2017,03,07,07,11,1.00
2017,03,07,07,12,1.00
2017,03,07,07,13,1.10
2017,03,07,07,14,1.10
2017,03,07,07,15,1.20
2017,03,07,07,16,1.20
2017,03,07,07,17,1.30
2017,03,07,07,18,1.30
2017,03,07,07,19,1.30
2017,03,07,07,20,1.40
2017,03,07,07,21,1.40
2017,03,07,07,22,1.50
2017,03,07,07,23,1.50
2017,03,07,07,24,1.50
2017,03,07,07,25,1.60
2017,03,07,07,26,1.60
2017,03,07,07,27,1.60
2017,03,07,07,28,1.70
2017,03,07,07,29,1.70
2017,03,07,07,30,1.70
2017,03,07,07,31,1.70
2017,03,07,07,32,1.70
2017,03,07,07,33,1.70
2017,03,07,07,34,1.70
2017,03,07,07,35,1.70
2017,03,07,07,36,1.70
2017,03,07,07,37,1.70
2017,03,07,07,38,1.80
2017,03,07,07,39,1.80
2017,03,07,07,40,1.80
2017,03,07,07,41,1.80
2017,03,07,07,42,1.80
2017,03,07,07,43,1.80
2017,03,07,07,44,1.80
2017,03,07,07,45,1.90
2017,03,07,07,46,1.90
2017,03,07,07,47,1.90
2017,03,07,07,48,1.90
2017,03,07,07,49,1.90
2017,03,07,07,50,1.90
2017,03,07,07,51,1.90
2017,03,07,07,52,1.90
2017,03,07,07,53,2.00
2017,03,07,07,54,2.00
2017,03,07,07,55,2.00
2017,03,07,07,56,2.00
2017,03,07,07,57,2.00
2017,03,07,07,58,2.10
2017,03,07,07,59,2.10
2017,03,07,08,00,2.10
2017,03,07,08,01,2.10
2017,03,07,08,02,2.10
2017,03,07,08,03,2.10
2017,03,07,08,04,2.10
2017,03,07,08,05,2.20
2017,03,07,08,06,2.20
2017,03,07,08,07,2.20
2017,03,07,08,08,2.20
2017,03,07,08,09,2.20
2017,03,07,08,10,2.20
2017,03,07,08,11,2.20
2017,03,07,08,12,2.20
2017,03,07,08,13,2.20
2017,03,07,08,14,2.20
2017,03,07,08,15,2.20
2017,03,07,08,16,2.20
2017,03,07,08,17,2.20
2017,03,07,08,18,2.20
2017,03,07,08,19,2.20
2017,03,07,08,20,2.30
2017,03,07,08,21,2.30
2017,03,07,08,22,2.30
2017,03,07,08,23,2.30
2017,03,07,08,24,2.30
2017,03,07,08,25,2.30
2017,03,07,08,26,2.30
2017,03,07,08,27,2.30
2017,03,07,08,28,2.30
2017,03,07,08,29,2.30
2017,03,07,08,30,2.30
2017,03,07,08,31,2.30
2017,03,07,08,32,2.30
2017,03,07,08,33,2.30
2017,03,07,08,34,2.30
2017,03,07,08,35,2.40
2017,03,07,08,36,2.40
2017,03,07,08,37,2.40
2017,03,07,08,38,2.40
2017,03,07,08,39,2.40
2017,03,07,08,40,2.40
2017,03,07,08,41,2.40
2017,03,07,08,42,2.40
2017,03,07,08,43,2.40
2017,03,07,08,44,2.40
2017,03,07,08,45,2.40
2017,03,07,08,46,2.40
2017,03,07,08,47,2.40
2017,03,07,08,48,2.40
2017,03,07,08,49,2.40
2017,03,07,08,50,2.40
2017,03,07,08,51,2.40
2017,03,07,08,52,2.40
2017,03,07,08,53,2.40
2017,03,07,08,54,2.50
2017,03,07,08,55,2.50
2017,03,07,08,56,2.50
2017,03,07,08,57,2.40
2017,03,07,08,58,2.40
2017,03,07,08,59,2.40
2017,03,07,09,00,2.40
2017,03,07,09,01,2.50
2017,03,07,09,02,2.50
2017,03,07,09,03,2.50
2017,03,07,09,04,2.50
2017,03,07,09,05,2.50
2017,03,07,09,06,2.50
2017,03,07,09,07,2.50
2017,03,07,09,08,2.50
2017,03,07,09,09,2.50
2017,03,07,09,10,2.60
2017,03,07,09,11,2.60
2017,03,07,09,12,2.60
2017,03,07,09,13,2.60
2017,03,07,09,14,2.60
2017,03,07,09,15,2.60
2017,03,07,09,16,2.60
2017,03,07,09,17,2.60
2017,03,07,09,18,2.60
2017,03,07,09,19,2.60
2017,03,07,09,20,2.60
2017,03,07,09,21,2.60
2017,03,07,09,22,2.60
2017,03,07,09,23,2.60
2017,03,07,09,24,2.60
2017,03,07,09,25,2.60
2017,03,07,09,26,2.70
2017,03,07,09,27,2.70
2017,03,07,09,28,2.70
2017,03,07,09,29,2.70
2017,03,07,09,30,2.70
2017,03,07,09,31,2.70
2017,03,07,09,32,2.70
2017,03,07,09,33,2.70
2017,03,07,09,34,2.80
2017,03,07,09,35,2.80
2017,03,07,09,36,2.80
2017,03,07,09,37,2.80
2017,03,07,09,38,2.80
2017,03,07,09,39,2.80
2017,03,07,09,40,2.90
2017,03,07,09,41,2.90
2017,03,07,09,42,2.90
2017,03,07,09,43,2.90
2017,03,07,09,44,3.00
2017,03,07,09,45,3.00
2017,03,07,09,46,3.00
2017,03,07,09,47,3.00
2017,03,07,09,48,3.10
2017,03,07,09,49,3.10
2017,03,07,09,50,3.10
2017,03,07,09,51,3.10
2017,03,07,09,52,3.10
2017,03,07,09,53,3.10
2017,03,07,09,54,3.10
2017,03,07,09,55,3.10
2017,03,07,09,56,3.10
2017,03,07,09,57,3.10
2017,03,07,09,58,3.20
2017,03,07,09,59,3.20
2017,03,07,10,00,3.20
2017,03,07,10,01,3.20
2017,03,07,10,02,3.30
2017,03,07,10,03,3.30
2017,03,07,10,04,3.30
2017,03,07,10,05,3.40
2017,03,07,10,06,3.40
2017,03,07,10,07,3.50
2017,03,07,10,08,3.50
2017,03,07,10,09,3.60
2017,03,07,10,10,3.60
2017,03,07,10,11,3.70
2017,03,07,10,12,3.70
2017,03,07,10,13,3.70
2017,03,07,10,14,3.70
2017,03,07,10,15,3.70
2017,03,07,10,16,3.80
2017,03,07,10,17,3.80
2017,03,07,10,18,3.80
2017,03,07,10,19,3.80
2017,03,07,10,20,3.80
2017,03,07,10,21,3.80
2017,03,07,10,22,3.80
2017,03,07,10,23,3.80
2017,03,07,10,24,3.80
2017,03,07,10,25,3.70
2017,03,07,10,26,3.70
2017,03,07,10,27,3.70
2017,03,07,10,28,3.70
2017,03,07,10,29,3.70
2017,03,07,10,30,3.70
2017,03,07,10,31,3.70
2017,03,07,10,32,3.70
2017,03,07,10,33,3.80
2017,03,07,10,34,3.80
2017,03,07,10,35,3.80
2017,03,07,10,36,3.80
2017,03,07,10,37,3.90
2017,03,07,10,38,3.90
2017,03,07,10,39,3.90
2017,03,07,10,40,3.90
2017,03,07,10,41,3.90
2017,03,07,10,42,4.00
2017,03,07,10,43,4.00
2017,03,07,10,44,4.10
2017,03,07,10,45,4.10
2017,03,07,10,46,4.10
2017,03,07,10,47,4.10
2017,03,07,10,48,4.10
2017,03,07,10,49,4.10
2017,03,07,10,50,4.10
2017,03,07,10,51,4.20
2017,03,07,10,52,4.20
2017,03,07,10,53,4.20
2017,03,07,10,54,4.20
2017,03,07,10,55,4.20
2017,03,07,10,56,4.20
2017,03,07,10,57,4.20
2017,03,07,10,58,4.20
2017,03,07,10,59,4.20
2017,03,07,11,00,4.20
2017,03,07,11,01,4.20
2017,03,07,11,02,4.30
2017,03,07,11,03,4.30
2017,03,07,11,04,4.30
2017,03,07,11,05,4.30
2017,03,07,11,06,4.40
2017,03,07,11,07,4.40
2017,03,07,11,08,4.40
2017,03,07,11,09,4.30
2017,03,07,11,10,4.30
2017,03,07,11,11,4.30
2017,03,07,11,12,4.40
2017,03,07,11,13,4.40
2017,03,07,11,14,4.40
2017,03,07,11,15,4.40
2017,03,07,11,16,4.40
2017,03,07,11,17,4.50
2017,03,07,11,18,4.50
2017,03,07,11,19,4.60
2017,03,07,11,20,4.60
2017,03,07,11,21,4.60
2017,03,07,11,22,4.60
2017,03,07,11,23,4.60
2017,03,07,11,24,4.60
2017,03,07,11,25,4.60
2017,03,07,11,26,4.70
2017,03,07,11,27,4.70
2017,03,07,11,28,4.80
2017,03,07,11,29,4.80
2017,03,07,11,30,4.80
2017,03,07,11,31,4.80
2017,03,07,11,32,4.80
2017,03,07,11,33,4.90
2017,03,07,11,34,4.90
2017,03,07,11,35,4.90
2017,03,07,11,36,4.90
2017,03,07,11,37,5.00
2017,03,07,11,38,5.00
2017,03,07,11,39,5.10
2017,03,07,11,40,5.20
2017,03,07,11,41,5.20
2017,03,07,11,42,5.20
2017,03,07,11,43,5.30
2017,03,07,11,44,5.30
2017,03,07,11,45,5.30
2017,03,07,11,46,5.30
2017,03,07,11,47,5.30
2017,03,07,11,48,5.40
2017,03,07,11,49,5.40
2017,03,07,11,50,5.40
2017,03,07,11,51,5.40
2017,03,07,11,52,5.40
2017,03,07,11,53,5.40
2017,03,07,11,54,5.50
2017,03,07,11,55,5.50
2017,03,07,11,56,5.50
2017,03,07,11,57,5.50
2017,03,07,11,58,5.40
2017,03,07,11,59,5.40
2017,03,07,12,00,5.40
2017,03,07,12,01,5.40
2017,03,07,12,02,5.40
2017,03,07,12,03,5.40
2017,03,07,12,04,5.40
2017,03,07,12,05,5.40
2017,03,07,12,06,5.40
2017,03,07,12,07,5.30
2017,03,07,12,08,5.30
2017,03,07,12,09,5.20
2017,03,07,12,10,5.20
2017,03,07,12,11,5.20
2017,03,07,12,12,5.20
2017,03,07,12,13,5.20
2017,03,07,12,14,5.20
2017,03,07,12,15,5.20
2017,03,07,12,16,5.30
2017,03,07,12,17,5.30
2017,03,07,12,18,5.30
2017,03,07,12,19,5.30
2017,03,07,12,20,5.40
2017,03,07,12,21,5.40
2017,03,07,12,22,5.50
2017,03,07,12,23,5.50
2017,03,07,12,24,5.60
2017,03,07,12,25,5.70
2017,03,07,12,26,5.70
2017,03,07,12,27,5.70
2017,03,07,12,28,5.80
2017,03,07,12,29,5.80
2017,03,07,12,30,5.80
2017,03,07,12,31,5.80
2017,03,07,12,32,5.80
2017,03,07,12,33,5.70
2017,03,07,12,34,5.70
2017,03,07,12,35,5.70
2017,03,07,12,36,5.60
2017,03,07,12,37,5.60
2017,03,07,12,38,5.60
2017,03,07,12,39,5.60
2017,03,07,12,40,5.70
2017,03,07,12,41,5.70
2017,03,07,12,42,5.70
2017,03,07,12,43,5.70
2017,03,07,12,44,5.70
2017,03,07,12,45,5.70
2017,03,07,12,46,5.70
2017,03,07,12,47,5.70
2017,03,07,12,48,5.70
2017,03,07,12,49,5.70
2017,03,07,12,50,5.70
2017,03,07,12,51,5.70
2017,03,07,12,52,5.60
2017,03,07,12,53,5.60
2017,03,07,12,54,5.60
2017,03,07,12,55,5.50
2017,03,07,12,56,5.50
2017,03,07,12,57,5.50
2017,03,07,12,58,5.40
2017,03,07,12,59,5.40
2017,03,07,13,00,5.40
2017,03,07,13,01,5.30
2017,03,07,13,02,5.30
2017,03,07,13,03,5.30
2017,03,07,13,04,5.30
2017,03,07,13,05,5.30
2017,03,07,13,06,5.30
2017,03,07,13,07,5.20
2017,03,07,13,08,5.20
2017,03,07,13,09,5.20
2017,03,07,13,10,5.20
2017,03,07,13,11,5.10
2017,03,07,13,12,5.10
2017,03,07,13,13,5.10
2017,03,07,13,14,5.10
2017,03,07,13,15,5.10
2017,03,07,13,16,5.10
2017,03,07,13,17,5.10
2017,03,07,13,18,5.00
2017,03,07,13,19,5.10
2017,03,07,13,20,5.10
2017,03,07,13,21,5.10
2017,03,07,13,22,5.10
2017,03,07,13,23,5.10
2017,03,07,13,24,5.10
2017,03,07,13,25,5.00
2017,03,07,13,26,5.00
2017,03,07,13,27,5.00
2017,03,07,13,28,5.10
2017,03,07,13,29,5.10
2017,03,07,13,30,5.10
2017,03,07,13,31,5.10
2017,03,07,13,32,5.00
2017,03,07,13,33,5.00
2017,03,07,13,34,5.00
2017,03,07,13,35,5.00
2017,03,07,13,36,5.00
2017,03,07,13,37,5.00
2017,03,07,13,38,5.00
2017,03,07,13,39,5.00
2017,03,07,13,40,5.00
2017,03,07,13,41,5.00
2017,03,07,13,42,5.00
2017,03,07,13,43,5.10
2017,03,07,13,44,5.00
2017,03,07,13,45,5.10
2017,03,07,13,46,5.10
2017,03,07,13,47,5.00
2017,03,07,13,48,5.00
2017,03,07,13,49,5.00
2017,03,07,13,50,5.10
2017,03,07,13,51,5.10
2017,03,07,13,52,5.10
2017,03,07,13,53,5.10
2017,03,07,13,54,5.10
2017,03,07,13,55,5.00
2017,03,07,13,56,5.00
2017,03,07,13,57,5.00
2017,03,07,13,58,5.00
2017,03,07,13,59,5.00
2017,03,07,14,00,5.00
2017,03,07,14,01,5.00
2017,03,07,14,02,5.00
2017,03,07,14,03,5.00
2017,03,07,14,04,5.00
2017,03,07,14,05,4.90
2017,03,07,14,06,4.90
2017,03,07,14,07,4.90
2017,03,07,14,08,4.90
2017,03,07,14,09,4.80
2017,03,07,14,10,4.80
2017,03,07,14,11,4.80
2017,03,07,14,12,4.80
2017,03,07,14,13,4.80
2017,03,07,14,14,4.80
2017,03,07,14,15,4.90
2017,03,07,14,16,4.90
2017,03,07,14,17,4.90
2017,03,07,14,18,4.90
2017,03,07,14,19,4.80
2017,03,07,14,20,4.80
2017,03,07,14,21,4.80
2017,03,07,14,22,4.80
2017,03,07,14,23,4.80
2017,03,07,14,24,4.80
2017,03,07,14,25,4.90
2017,03,07,14,26,4.90
2017,03,07,14,27,4.90
2017,03,07,14,28,4.90
2017,03,07,14,29,4.90
2017,03,07,14,30,4.90
2017,03,07,14,31,4.90
2017,03,07,14,32,4.90
2017,03,07,14,33,4.90
2017,03,07,14,34,4.90
2017,03,07,14,35,4.90
2017,03,07,14,36,4.90
2017,03,07,14,37,4.90
2017,03,07,14,38,4.90
2017,03,07,14,39,4.90
2017,03,07,14,40,5.00
2017,03,07,14,41,5.00
2017,03,07,14,42,5.00
2017,03,07,14,43,5.00
2017,03,07,14,44,5.00
2017,03,07,14,45,5.00
2017,03,07,14,46,5.00
2017,03,07,14,47,5.10
2017,03,07,14,48,5.10
2017,03,07,14,49,5.10
2017,03,07,14,50,5.00
2017,03,07,14,51,5.00
2017,03,07,14,52,5.00
2017,03,07,14,53,5.00
2017,03,07,14,54,5.00
2017,03,07,14,55,5.10
2017,03,07,14,56,5.10
2017,03,07,14,57,5.10
2017,03,07,14,58,5.10
2017,03,07,14,59,5.10
2017,03,07,15,00,5.10
2017,03,07,15,01,5.10
2017,03,07,15,02,5.10
2017,03,07,15,03,5.10
2017,03,07,15,04,5.10
2017,03,07,15,05,5.10
2017,03,07,15,06,5.10
2017,03,07,15,07,5.10
2017,03,07,15,08,5.10
2017,03,07,15,09,5.10
2017,03,07,15,10,5.10
2017,03,07,15,11,5.10
2017,03,07,15,12,5.10
2017,03,07,15,13,5.10
2017,03,07,15,14,5.10
2017,03,07,15,15,5.20
2017,03,07,15,16,5.20
2017,03,07,15,17,5.20
2017,03,07,15,18,5.20
2017,03,07,15,19,5.20
2017,03,07,15,20,5.20
2017,03,07,15,21,5.20
2017,03,07,15,22,5.20
2017,03,07,15,23,5.20
2017,03,07,15,24,5.20
2017,03,07,15,25,5.20
2017,03,07,15,26,5.20
2017,03,07,15,27,5.10
2017,03,07,15,28,5.10
2017,03,07,15,29,5.10
2017,03,07,15,30,5.10
2017,03,07,15,31,5.10
2017,03,07,15,32,5.10
2017,03,07,15,33,5.10
2017,03,07,15,34,5.10
2017,03,07,15,35,5.10
2017,03,07,15,36,5.10
2017,03,07,15,37,5.10
2017,03,07,15,38,5.10
2017,03,07,15,39,5.10
2017,03,07,15,40,5.10
2017,03,07,15,41,5.10
2017,03,07,15,42,5.10
2017,03,07,15,43,5.10
2017,03,07,15,44,5.10
2017,03,07,15,45,5.20
2017,03,07,15,46,5.20
2017,03,07,15,47,5.20
2017,03,07,15,48,5.20
2017,03,07,15,49,5.20
2017,03,07,15,50,5.20
2017,03,07,15,51,5.20
2017,03,07,15,52,5.20
2017,03,07,15,53,5.20
2017,03,07,15,54,5.20
2017,03,07,15,55,5.20
2017,03,07,15,56,5.20
2017,03,07,15,57,5.20
2017,03,07,15,58,5.20
2017,03,07,15,59,5.20
2017,03,07,16,00,5.20
2017,03,07,16,01,5.20
2017,03,07,16,02,5.20
2017,03,07,16,03,5.10
2017,03,07,16,04,5.10
2017,03,07,16,05,5.10
2017,03,07,16,06,5.10
2017,03,07,16,07,5.10
2017,03,07,16,08,5.10
2017,03,07,16,09,5.10
2017,03,07,16,10,5.10
2017,03,07,16,11,5.10
2017,03,07,16,12,5.10
2017,03,07,16,13,5.10
2017,03,07,16,14,5.10
2017,03,07,16,15,5.10
2017,03,07,16,16,5.10
2017,03,07,16,17,5.10
2017,03,07,16,18,5.10
2017,03,07,16,19,5.10
2017,03,07,16,20,5.10
2017,03,07,16,21,5.10
2017,03,07,16,22,5.10
2017,03,07,16,23,5.10
2017,03,07,16,24,5.10
2017,03,07,16,25,5.10
2017,03,07,16,26,5.10
2017,03,07,16,27,5.10
2017,03,07,16,28,5.10
2017,03,07,16,29,5.10
2017,03,07,16,30,5.10
2017,03,07,16,31,5.10
2017,03,07,16,32,5.10
2017,03,07,16,33,5.10
2017,03,07,16,34,5.10
2017,03,07,16,35,5.10
2017,03,07,16,36,5.10
2017,03,07,16,37,5.10
2017,03,07,16,38,5.10
2017,03,07,16,39,5.10
2017,03,07,16,40,5.10
2017,03,07,16,41,5.10
2017,03,07,16,42,5.10
2017,03,07,16,43,5.10
2017,03,07,16,44,5.10
2017,03,07,16,45,5.10
2017,03,07,16,46,5.10
2017,03,07,16,47,5.10
2017,03,07,16,48,5.10
2017,03,07,16,49,5.10
2017,03,07,16,50,5.10
2017,03,07,16,51,5.10
2017,03,07,16,52,5.10
2017,03,07,16,53,5.10
2017,03,07,16,54,5.10
2017,03,07,16,55,5.10
2017,03,07,16,56,5.10
2017,03,07,16,57,5.10
2017,03,07,16,58,5.10
2017,03,07,16,59,5.10
2017,03,07,17,00,5.10
2017,03,07,17,01,5.10
2017,03,07,17,02,5.10
2017,03,07,17,03,5.10
2017,03,07,17,04,5.10
2017,03,07,17,05,5.10
2017,03,07,17,06,5.10
2017,03,07,17,07,5.10
2017,03,07,17,08,5.10
2017,03,07,17,09,5.00
2017,03,07,17,10,5.00
2017,03,07,17,11,5.00
2017,03,07,17,12,5.00
2017,03,07,17,13,5.00
2017,03,07,17,14,5.00
2017,03,07,17,15,5.00
2017,03,07,17,16,5.00
2017,03,07,17,17,5.00
2017,03,07,17,18,5.00
2017,03,07,17,19,4.90
2017,03,07,17,20,4.90
2017,03,07,17,21,4.90
2017,03,07,17,22,4.90
2017,03,07,17,23,4.90
2017,03,07,17,24,4.90
2017,03,07,17,25,4.90
2017,03,07,17,26,4.90
2017,03,07,17,27,4.90
2017,03,07,17,28,4.90
2017,03,07,17,29,4.90
2017,03,07,17,30,4.90
2017,03,07,17,31,4.90
2017,03,07,17,32,4.90
2017,03,07,17,33,4.90
2017,03,07,17,34,4.90
2017,03,07,17,35,4.90
2017,03,07,17,36,4.90
2017,03,07,17,37,4.90
2017,03,07,17,38,4.90
2017,03,07,17,39,4.90
2017,03,07,17,40,4.90
2017,03,07,17,41,4.90
2017,03,07,17,42,4.90
2017,03,07,17,43,4.90
2017,03,07,17,44,4.80
2017,03,07,17,45,4.80
2017,03,07,17,46,4.80
2017,03,07,17,47,4.80
2017,03,07,17,48,4.80